KK4URH Weather Reports


time (UTC)temp
C
wind
direction
speed
KPH
gust
KPH
rain 1hr
cm
rain 24hr
cm
rain mn
cm
humidity
%
barometer
mb
20260901094554 23 190 0.0 0.0 0.00 0.00 0.00 65 1017.1
20260901093059 24 190 0.0 0.0 0.00 0.00 0.00 65 1017.1
20260901091551 24 190 0.0 0.0 0.00 0.00 0.00 65 1017.2
20260901090044 24 190 0.0 0.0 0.00 0.00 0.00 65 1017.1
20260901084546 24 190 0.0 0.0 0.00 0.00 0.00 64 1017.2
20260901083043 24 190 0.0 0.0 0.00 0.00 0.00 64 1017.4
20260901081539 25 190 0.0 0.0 0.00 0.00 0.00 64 1017.5
20260901080039 25 190 0.0 0.0 0.00 0.00 0.00 64 1017.5
20260901074537 25 190 0.0 0.0 0.00 0.00 0.00 64 1017.5
20260901073045 25 190 0.0 0.0 0.00 0.00 0.00 64 1017.4
20260901071513 25 190 0.0 3.2 0.00 0.00 0.00 64 1017.7
20260901070005 25 190 0.0 3.2 0.00 0.00 0.00 64 1017.6
20260901064503 25 189 0.0 1.6 0.00 0.00 0.00 64 1017.7
20260901063002 25 190 0.0 1.6 0.00 0.00 0.00 64 1017.8
20260901061506 25 191 0.0 6.4 0.00 0.00 0.00 64 1017.9
20260901060001 25 192 0.0 3.2 0.00 0.00 0.00 65 1017.9
20260901054607 25 192 0.0 1.6 0.00 0.00 0.00 65 1018.1
20260901053106 25 192 0.0 3.2 0.00 0.00 0.00 65 1018.3
20260901051557 25 181 0.0 4.8 0.00 0.00 0.00 64 1018.2
20260901050051 25 196 0.0 6.4 0.00 0.00 0.00 63 1018.1
20260901044607 26 163 0.0 4.8 0.00 0.00 0.00 62 1018.2
20260901043044 26 153 0.0 4.8 0.00 0.00 0.00 60 1018.0
20260901041543 26 180 1.6 6.4 0.00 0.00 0.00 58 1017.8
20260901040043 26 173 0.0 3.2 0.00 0.00 0.00 58 1017.7
20260901034542 26 173 0.0 3.2 0.00 0.00 0.00 58 1017.8
20260901033011 26 173 0.0 1.6 0.00 0.00 0.00 58 1017.8
20260901031510 26 173 0.0 1.6 0.00 0.00 0.00 58 1017.7
20260901030005 26 173 0.0 0.0 0.00 0.00 0.00 58 1017.7
20260901024510 27 173 0.0 0.0 0.00 0.00 0.00 57 1017.9
20260901023003 27 172 0.0 1.6 0.00 0.00 0.00 57 1017.9
20260901021503 27 172 0.0 1.6 0.00 0.00 0.00 57 1017.8
20260901020101 27 172 0.0 0.0 0.00 0.00 0.00 56 1017.9
20260901014556 27 172 0.0 1.6 0.00 0.00 0.00 56 1017.8
20260901013056 27 171 0.0 0.0 0.00 0.00 0.00 56 1017.6
20260901011603 27 171 0.0 0.0 0.00 0.00 0.00 56 1017.4
20260901010031 28 171 0.0 0.0 0.00 0.00 0.00 56 1017.3
20260901004532 28 171 0.0 1.6 0.00 0.00 0.00 53 1017.2
20260901003023 28 173 0.0 0.0 0.00 0.00 0.00 53 1017.0
20260901001523 28 173 0.0 0.0 0.00 0.00 0.00 51 1016.9
20260901000015 29 173 0.0 1.6 0.00 0.00 0.00 48 1016.8
20260831234512 30 173 0.0 0.0 0.00 0.00 0.00 46 1016.9
20260831233009 31 136 0.0 0.0 0.00 0.00 0.00 42 1016.8
20260831231508 31 96 0.0 0.0 0.00 0.00 0.00 40 1016.8
20260831230108 31 254 0.0 0.0 0.00 0.00 0.00 41 1016.8
20260831224507 32 254 0.0 0.0 0.00 0.00 0.00 39 1016.8
20260831223004 32 259 0.0 0.0 0.00 0.00 0.00 38 1016.6
20260831221504 32 191 0.0 0.0 0.00 0.00 0.00 40 1016.5
20260831220002 33 190 0.0 0.0 0.00 0.00 0.00 38 1016.7
20260831214500 33 189 0.0 0.0 0.00 0.00 0.00 38 1016.8
20260831213058 33 154 0.0 3.2 0.00 0.00 0.00 37 1017.0
20260831211558 33 150 0.0 3.2 0.00 0.00 0.00 39 1016.9
20260831210057 33 140 1.6 6.4 0.00 0.00 0.00 37 1017.1
20260831204601 33 199 0.0 4.8 0.00 0.00 0.00 36 1017.2
20260831203052 33 223 0.0 0.0 0.00 0.00 0.00 38 1017.2
20260831201551 32 236 0.0 3.2 0.00 0.00 0.00 38 1017.4
20260831200050 32 180 4.8 9.7 0.00 0.00 0.00 38 1017.4
20260831194548 32 107 1.6 6.4 0.00 0.00 0.00 39 1017.4
20260831193015 33 161 1.6 4.8 0.00 0.00 0.00 38 1017.7
20260831191514 33 188 0.0 3.2 0.00 0.00 0.00 35 1017.8
20260831190101 33 189 0.0 6.4 0.00 0.00 0.00 38 1018.0
20260831184543 33 179 0.0 0.0 0.00 0.00 0.00 40 1018.2
20260831183047 33 161 0.0 0.0 0.00 0.00 0.00 41 1018.3
20260831181533 32 161 0.0 0.0 0.00 0.00 0.00 40 1018.5
20260831180029 32 167 0.0 0.0 0.00 0.00 0.00 43 1018.6
20260831174526 32 180 0.0 0.0 0.00 0.00 0.00 44 1018.6
20260831173022 31 25 0.0 0.0 0.00 0.00 0.00 49 1018.7
20260831171518 31 14 0.0 0.0 0.00 0.00 0.00 45 1018.7
20260831170018 31 17 0.0 0.0 0.00 0.00 0.00 47 1018.9
20260831164515 31 201 0.0 1.6 0.00 0.00 0.00 47 1019.0
20260831163033 30 36 0.0 0.0 0.00 0.00 0.00 49 1019.2
20260831161512 30 25 0.0 3.2 0.00 0.00 0.00 55 1019.3
20260831160006 29 26 1.6 4.8 0.00 0.00 0.00 56 1019.4
20260831154501 30 59 1.6 4.8 0.00 0.00 0.00 59 1019.6
20260831153100 30 62 0.0 4.8 0.00 0.00 0.00 56 1019.7
20260831151556 30 189 0.0 4.8 0.00 0.00 0.00 59 1019.8
20260831150054 30 17 0.0 1.6 0.00 0.00 0.00 59 1019.8
20260831144552 29 19 0.0 3.2 0.00 0.00 0.00 60 1019.8
20260831143100 28 302 0.0 3.2 0.00 0.00 0.00 62 1019.7
20260831141547 27 210 0.0 6.4 0.00 0.00 0.00 64 1019.5
20260831140046 27 260 0.0 1.6 0.00 0.00 0.00 69 1019.4
20260831134544 26 259 0.0 1.6 0.00 0.00 0.00 72 1019.3
20260831133051 25 259 0.0 3.2 0.00 0.00 0.00 75 1019.4
20260831131546 24 242 0.0 3.2 0.00 0.00 0.00 77 1019.4
20260831130046 23 253 0.0 1.6 0.00 0.00 0.00 78 1019.4
20260831124548 23 176 0.0 1.6 0.00 0.00 0.00 79 1019.5
20260831123041 22 170 0.0 1.6 0.00 0.00 0.00 80 1019.4
20260831121511 22 170 0.0 1.6 0.00 0.00 0.00 80 1019.4
20260831120012 21 170 0.0 0.0 0.00 0.00 0.00 79 1019.3
20260831114507 21 170 0.0 0.0 0.00 0.00 0.00 79 1019.3
20260831113007 20 170 0.0 0.0 0.00 0.00 0.00 79 1019.3
20260831111513 20 157 0.0 0.0 0.00 0.00 0.00 79 1019.3
20260831110007 20 157 0.0 0.0 0.00 0.00 0.00 79 1019.3
20260831104502 20 157 0.0 0.0 0.00 0.00 0.00 79 1019.2
20260831103002 20 157 0.0 0.0 0.00 0.00 0.00 78 1019.1
20260831101502 20 157 0.0 0.0 0.00 0.00 0.00 78 1019.1
20260831100100 20 157 0.0 0.0 0.00 0.00 0.00 78 1019.0